{"data":{"norad_id":53147,"epoch":"2026-05-25T04:53:47.817888Z","epoch_age_seconds":53848,"freshness":"FRESH","line1":"1 53147U 22083R   26145.20402567 -.00000011  00000+0  17382-4 0  9996","line2":"2 53147  53.2123 190.6339 0000971  73.2962 286.8136 15.08837665213420","mean_motion":15.08837665,"eccentricity":9.71e-5,"inclination_deg":53.2123,"raan_deg":190.6339,"arg_perigee_deg":73.2962,"mean_anomaly_deg":286.8136,"bstar":1.7382e-5,"rev_number":21342,"period_min":95.437702372044,"perigee_km":539.07879925539,"apogee_km":540.42225301296,"semimajor_km":6917.8875261342,"source":"CELESTRAK","updated_at":"2026-05-25T13:38:17.318834Z"}}